Winston-Salem, NC

6:29 AM EST on December 18, 2017 (GMT -0500)
Smith Reynolds

Weather History for KINT - March, 2013

Change the Weather History Date:

Saturday, March 9, 2013

  Actual Average Record
Temperature  
Mean Temperature 44 °F -  
Max Temperature 61 °F 55 °F 84 °F (1974)
Min Temperature 28 °F 37 °F 15 °F (1966)
Degree Days  
Heating Degree Days 20    
Moisture  
Dew Point 25 °F    
Average Humidity 47    
Maximum Humidity 75    
Minimum Humidity 24    
Precipitation  
Precipitation 0.00 in - - ()
Sea Level Pressure  
Sea Level Pressure 30.30 in    
Wind  
Wind Speed 2 mph (NNW)    
Max Wind Speed 8 mph    
Max Gust Speed -    
Visibility 10 miles    
Events      
Averages and records for this station are not official NWS values.
T = Trace of Precipitation, MM = Missing Value Source: NWS Daily Summary

Daily Weather History Graph

Daily Weather History Graph

Search for Another Location

Airport or City:

Trip Planner

Search our weather history database for the weather conditions in past years. The results will help you decide how hot, cold, wet, or windy it might be!

Date:

Astronomy

Mar. 09, 2013 Rise Set
Actual Time 6:39 AM EST 6:23 PM EST
Civil Twilight 6:14 AM EST 6:48 PM EST
Nautical Twilight 5:44 AM EST 7:18 PM EST
Astronomical Twilight 5:14 AM EST 7:48 PM EST
Moon 4:59 AM EST (3/9) 4:25 PM EST (3/9)
Length of Visible Light 12h 34m
Length of Day
11h 43m
Waning Crescent, 5% of the Moon is Illuminated
Mar 9
Waning Crescent
Mar 11
New
Mar 19
First Quarter
Mar 27
Full
Apr 3
Last Quarter

Hourly Weather History & Observations

Time (EST) Temp. Windchill Dew Point Humidity Pressure Visibility Wind Dir Wind Speed Gust Speed Precip Events Conditions
12:54 AM 39.0 °F - 24.1 °F 55% 30.32 in 10.0 mi Calm Calm - N/A   Clear
1:54 AM 34.0 °F 31.0 °F 23.0 °F 64% 30.30 in 10.0 mi North 3.5 mph - N/A   Clear
2:54 AM 36.0 °F - 23.0 °F 59% 30.29 in 10.0 mi Calm Calm - N/A   Clear
3:54 AM 34.0 °F 28.8 °F 23.0 °F 64% 30.29 in 10.0 mi NNW 5.8 mph - N/A   Clear
4:54 AM 34.0 °F - 23.0 °F 64% 30.30 in 10.0 mi Calm Calm - N/A   Clear
5:54 AM 28.9 °F - 21.9 °F 75% 30.32 in 10.0 mi Calm Calm - N/A   Clear
6:54 AM 30.0 °F - 23.0 °F 75% 30.32 in 10.0 mi Calm Calm - N/A   Clear
7:54 AM 37.0 °F 34.5 °F 26.1 °F 65% 30.34 in 10.0 mi NNW 3.5 mph - N/A   Clear
8:54 AM 45.0 °F 40.6 °F 25.0 °F 46% 30.35 in 10.0 mi North 8.1 mph - N/A   Clear
9:54 AM 48.0 °F - 25.0 °F 41% 30.36 in 10.0 mi Variable 5.8 mph - N/A   Clear
10:54 AM 51.1 °F - 25.0 °F 36% 30.35 in 10.0 mi Variable 4.6 mph - N/A   Clear
11:54 AM 53.1 °F - 26.1 °F 35% 30.34 in 10.0 mi Variable 3.5 mph - N/A   Clear
12:54 PM 54.0 °F - 25.0 °F 33% 30.32 in 10.0 mi Calm Calm - N/A   Clear
1:54 PM 57.9 °F - 24.1 °F 27% 30.29 in 10.0 mi Variable 4.6 mph - N/A   Clear
2:54 PM 59.0 °F - 24.1 °F 26% 30.27 in 10.0 mi Variable 4.6 mph - N/A   Clear
3:54 PM 61.0 °F - 24.1 °F 24% 30.25 in 10.0 mi WNW 3.5 mph - N/A   Clear
4:54 PM 61.0 °F - 24.1 °F 24% 30.25 in 10.0 mi Calm Calm - N/A   Clear
5:54 PM 59.0 °F - 24.1 °F 26% 30.26 in 10.0 mi Calm Calm - N/A   Clear
6:54 PM 53.1 °F - 27.0 °F 37% 30.27 in 10.0 mi Calm Calm - N/A   Clear
7:54 PM 50.0 °F - 28.9 °F 44% 30.27 in 10.0 mi Calm Calm - N/A   Clear
8:54 PM 48.9 °F - 27.0 °F 43% 30.27 in 10.0 mi Calm Calm - N/A   Clear
9:54 PM 46.0 °F - 28.0 °F 50% 30.29 in 10.0 mi Calm Calm - N/A   Clear
10:54 PM 45.0 °F - 27.0 °F 49% 30.30 in 10.0 mi Calm Calm - N/A   Clear
11:54 PM 42.1 °F - 28.0 °F 58% 30.30 in 10.0 mi Calm Calm - N/A   Clear